| time (UTC) | temp F | wind direction | speed MPH | gust MPH | rain 1hr in | rain 24hr in | rain mn in | humidity % | barometer mb |
| 20260831203824 | 100 | 352 | 3.0 | 19.0 | 0.00 | 0.00 | 0.00 | ||
| 20260831202833 | 100 | 346 | 12.0 | 19.0 | 0.00 | 0.00 | 0.00 | ||
| 20260831202332 | 100 | 359 | 9.0 | 17.0 | 0.00 | 0.00 | 0.00 | ||
| 20260831201834 | 100 | 359 | 10.0 | 15.0 | 0.00 | 0.00 | 0.00 | ||
| 20260831201326 | 100 | 3 | 6.0 | 13.0 | 0.00 | 0.00 | 0.00 | ||
| 20260831200832 | 99 | 354 | 7.0 | 13.0 | 0.00 | 0.00 | 0.00 | ||
| 20260831195338 | 99 | 352 | 6.0 | 15.0 | 0.00 | 0.00 | 0.00 | ||
| 20260831194819 | 98 | 342 | 4.0 | 13.0 | 0.00 | 0.00 | 0.00 | ||
| 20260831194342 | 98 | 356 | 5.0 | 14.0 | 0.00 | 0.00 | 0.00 | ||
| 20260831193337 | 98 | 358 | 5.0 | 12.0 | 0.00 | 0.00 | 0.00 | ||
| 20260831192838 | 98 | 0 | 5.0 | 13.0 | 0.00 | 0.00 | 0.00 | ||
| 20260831192338 | 98 | 354 | 5.0 | 14.0 | 0.00 | 0.00 | 0.00 | ||
| 20260831191838 | 98 | 357 | 8.0 | 14.0 | 0.00 | 0.00 | 0.00 | ||
| 20260831191340 | 97 | 0 | 6.0 | 13.0 | 0.00 | 0.00 | 0.00 | ||
| 20260831190832 | 97 | 355 | 4.0 | 16.0 | 0.00 | 0.00 | 0.00 | ||
| 20260831190333 | 97 | 359 | 5.0 | 16.0 | 0.00 | 0.00 | 0.00 | ||
| 20260831185834 | 97 | 359 | 6.0 | 14.0 | 0.00 | 0.00 | 0.00 | ||
| 20260831185335 | 96 | 359 | 6.0 | 10.0 | 0.00 | 0.00 | 0.00 | ||
| 20260831184820 | 96 | 345 | 3.0 | 15.0 | 0.00 | 0.00 | 0.00 | ||
| 20260831184341 | 96 | 355 | 5.0 | 15.0 | 0.00 | 0.00 | 0.00 | ||
| 20260831183833 | 96 | 356 | 3.0 | 9.0 | 0.00 | 0.00 | 0.00 | ||
| 20260831183335 | 96 | 0 | 3.0 | 14.0 | 0.00 | 0.00 | 0.00 | ||
| 20260831182836 | 95 | 3 | 7.0 | 16.0 | 0.00 | 0.00 | 0.00 | ||
| 20260831182334 | 95 | 347 | 9.0 | 16.0 | 0.00 | 0.00 | 0.00 | ||
| 20260831181338 | 94 | 359 | 3.0 | 11.0 | 0.00 | 0.00 | 0.00 | ||
| 20260831180828 | 94 | 357 | 6.0 | 12.0 | 0.00 | 0.00 | 0.00 | ||
| 20260831180330 | 94 | 358 | 7.0 | 14.0 | 0.00 | 0.00 | 0.00 | ||
| 20260831175830 | 94 | 4 | 4.0 | 14.0 | 0.00 | 0.00 | 0.00 | ||
| 20260831175333 | 94 | 359 | 6.0 | 11.0 | 0.00 | 0.00 | 0.00 | ||
| 20260831174834 | 93 | 0 | 7.0 | 14.0 | 0.00 | 0.00 | 0.00 | ||
| 20260831174334 | 93 | 347 | 9.0 | 16.0 | 0.00 | 0.00 | 0.00 | ||
| 20260831173829 | 93 | 357 | 6.0 | 16.0 | 0.00 | 0.00 | 0.00 | ||
| 20260831173330 | 93 | 352 | 8.0 | 16.0 | 0.00 | 0.00 | 0.00 | ||
| 20260831172832 | 92 | 347 | 6.0 | 15.0 | 0.00 | 0.00 | 0.00 | ||
| 20260831172332 | 92 | 0 | 6.0 | 12.0 | 0.00 | 0.00 | 0.00 | ||
| 20260831171835 | 92 | 356 | 6.0 | 13.0 | 0.00 | 0.00 | 0.00 | ||
| 20260831171337 | 91 | 359 | 6.0 | 16.0 | 0.00 | 0.00 | 0.00 | ||
| 20260831170828 | 91 | 357 | 7.0 | 16.0 | 0.00 | 0.00 | 0.00 | ||
| 20260831165832 | 90 | 0 | 6.0 | 13.0 | 0.00 | 0.00 | 0.00 | ||
| 20260831165334 | 90 | 0 | 7.0 | 13.0 | 0.00 | 0.00 | 0.00 | ||
| 20260831164834 | 90 | 0 | 7.0 | 15.0 | 0.00 | 0.00 | 0.00 | ||
| 20260831164335 | 89 | 0 | 8.0 | 15.0 | 0.00 | 0.00 | 0.00 | ||
| 20260831163829 | 89 | 351 | 6.0 | 13.0 | 0.00 | 0.00 | 0.00 | ||
| 20260831163329 | 88 | 0 | 5.0 | 16.0 | 0.00 | 0.00 | 0.00 | ||
| 20260831162835 | 88 | 355 | 11.0 | 16.0 | 0.00 | 0.00 | 0.00 | ||
| 20260831162336 | 88 | 343 | 7.0 | 12.0 | 0.00 | 0.00 | 0.00 | ||
| 20260831161836 | 87 | 353 | 5.0 | 12.0 | 0.00 | 0.00 | 0.00 | ||
| 20260831161338 | 87 | 357 | 6.0 | 12.0 | 0.00 | 0.00 | 0.00 | ||
| 20260831160337 | 86 | 359 | 6.0 | 13.0 | 0.00 | 0.00 | 0.00 | ||
| 20260831155820 | 86 | 3 | 4.0 | 11.0 | 0.00 | 0.00 | 0.00 | ||
| 20260831155319 | 85 | 356 | 2.0 | 11.0 | 0.00 | 0.00 | 0.00 | ||
| 20260831154820 | 85 | 358 | 3.0 | 9.0 | 0.00 | 0.00 | 0.00 | ||
| 20260831154343 | 84 | 0 | 4.0 | 7.0 | 0.00 | 0.00 | 0.00 | ||
| 20260831153836 | 84 | 359 | 3.0 | 6.0 | 0.00 | 0.00 | 0.00 | ||
| 20260831153336 | 84 | 0 | 3.0 | 5.0 | 0.00 | 0.00 | 0.00 | ||
| 20260831152838 | 83 | 342 | 3.0 | 7.0 | 0.00 | 0.00 | 0.00 | ||
| 20260831152322 | 83 | 353 | 2.0 | 10.0 | 0.00 | 0.00 | 0.00 | ||
| 20260831151821 | 82 | 357 | 3.0 | 11.0 | 0.00 | 0.00 | 0.00 | ||
| 20260831151343 | 82 | 355 | 7.0 | 11.0 | 0.00 | 0.00 | 0.00 | ||
| 20260831150835 | 82 | 356 | 5.0 | 9.0 | 0.00 | 0.00 | 0.00 | ||
| 20260831150337 | 81 | 1 | 4.0 | 7.0 | 0.00 | 0.00 | 0.00 | ||
| 20260831145837 | 81 | 354 | 5.0 | 7.0 | 0.00 | 0.00 | 0.00 | ||
| 20260831144823 | 80 | 357 | 2.0 | 5.0 | 0.00 | 0.00 | 0.00 | ||
| 20260831143838 | 79 | 334 | 1.0 | 4.0 | 0.00 | 0.00 | 0.00 | ||
| 20260831143337 | 78 | 0 | 1.0 | 4.0 | 0.00 | 0.00 | 0.00 | ||
| 20260831142837 | 78 | 0 | 2.0 | 3.0 | 0.00 | 0.00 | 0.00 | ||
| 20260831141824 | 77 | 0 | 0.0 | 0.0 | 0.00 | 0.00 | 0.00 | ||
| 20260831141345 | 77 | 0 | 0.0 | 0.0 | 0.00 | 0.00 | 0.00 | ||
| 20260831140835 | 77 | 0 | 0.0 | 0.0 | 0.00 | 0.00 | 0.00 | ||
| 20260831140321 | 77 | 0 | 0.0 | 0.0 | 0.00 | 0.00 | 0.00 | ||
| 20260831135326 | 77 | 0 | 0.0 | 0.0 | 0.00 | 0.00 | 0.00 | ||
| 20260831134825 | 76 | 0 | 0.0 | 0.0 | 0.00 | 0.00 | 0.00 | ||
| 20260831134348 | 76 | 0 | 0.0 | 0.0 | 0.00 | 0.00 | 0.00 | ||
| 20260831133821 | 76 | 0 | 0.0 | 0.0 | 0.00 | 0.00 | 0.00 | ||
| 20260831133322 | 76 | 0 | 0.0 | 0.0 | 0.00 | 0.00 | 0.00 | ||
| 20260831132822 | 76 | 0 | 0.0 | 0.0 | 0.00 | 0.00 | 0.00 | ||
| 20260831132322 | 76 | 0 | 0.0 | 0.0 | 0.00 | 0.00 | 0.00 | ||
| 20260831131823 | 77 | 0 | 0.0 | 0.0 | 0.00 | 0.00 | 0.00 | ||
| 20260831131344 | 77 | 0 | 0.0 | 0.0 | 0.00 | 0.00 | 0.00 | ||
| 20260831130838 | 77 | 0 | 0.0 | 0.0 | 0.00 | 0.00 | 0.00 | ||
| 20260831130338 | 77 | 0 | 0.0 | 0.0 | 0.00 | 0.00 | 0.00 | ||
| 20260831125321 | 77 | 0 | 0.0 | 1.0 | 0.00 | 0.00 | 0.00 | ||
| 20260831124826 | 77 | 0 | 0.0 | 0.0 | 0.00 | 0.00 | 0.00 | ||
| 20260831124331 | 77 | 0 | 0.0 | 0.0 | 0.00 | 0.00 | 0.00 | ||
| 20260831123821 | 77 | 0 | 0.0 | 0.0 | 0.00 | 0.00 | 0.00 | ||
| 20260831123320 | 77 | 0 | 0.0 | 0.0 | 0.00 | 0.00 | 0.00 | ||
| 20260831122822 | 78 | 0 | 0.0 | 3.0 | 0.00 | 0.00 | 0.00 | ||
| 20260831122324 | 78 | 0 | 0.0 | 3.0 | 0.00 | 0.00 | 0.00 | ||
| 20260831121824 | 78 | 0 | 0.0 | 1.0 | 0.00 | 0.00 | 0.00 | ||
| 20260831121347 | 78 | 0 | 0.0 | 4.0 | 0.00 | 0.00 | 0.00 | ||
| 20260831120322 | 77 | 4 | 1.0 | 3.0 | 0.00 | 0.00 | 0.00 | ||
| 20260831115823 | 77 | 279 | 1.0 | 2.0 | 0.00 | 0.00 | 0.00 | ||
| 20260831115323 | 77 | 165 | 0.0 | 1.0 | 0.00 | 0.00 | 0.00 | ||
| 20260831114823 | 77 | 139 | 0.0 | 1.0 | 0.00 | 0.00 | 0.00 | ||
| 20260831114348 | 77 | 266 | 0.0 | 0.0 | 0.00 | 0.00 | 0.00 | ||
| 20260831113822 | 78 | 270 | 0.0 | 0.0 | 0.00 | 0.00 | 0.00 | ||
| 20260831112824 | 78 | 294 | 0.0 | 0.0 | 0.00 | 0.00 | 0.00 | ||
| 20260831112323 | 78 | 291 | 0.0 | 0.0 | 0.00 | 0.00 | 0.00 | ||
| 20260831111827 | 78 | 269 | 0.0 | 0.0 | 0.00 | 0.00 | 0.00 | ||
| 20260831111349 | 78 | 283 | 0.0 | 1.0 | 0.00 | 0.00 | 0.00 | ||
| 20260831110821 | 78 | 339 | 0.0 | 1.0 | 0.00 | 0.00 | 0.00 | ||
| 20260831110336 | 78 | 355 | 0.0 | 1.0 | 0.00 | 0.00 | 0.00 | ||
| 20260831105836 | 79 | 4 | 0.0 | 1.0 | 0.00 | 0.00 | 0.00 | ||
| 20260831104820 | 79 | 42 | 0.0 | 1.0 | 0.00 | 0.00 | 0.00 | ||
| 20260831104342 | 79 | 53 | 0.0 | 0.0 | 0.00 | 0.00 | 0.00 | ||
| 20260831103833 | 79 | 33 | 0.0 | 0.0 | 0.00 | 0.00 | 0.00 | ||
| 20260831103333 | 79 | 13 | 0.0 | 0.0 | 0.00 | 0.00 | 0.00 | ||
| 20260831102832 | 79 | 55 | 0.0 | 0.0 | 0.00 | 0.00 | 0.00 | ||
| 20260831102333 | 79 | 54 | 0.0 | 1.0 | 0.00 | 0.00 | 0.00 | ||
| 20260831101836 | 80 | 55 | 0.0 | 1.0 | 0.00 | 0.00 | 0.00 | ||
| 20260831101336 | 80 | 5 | 0.0 | 0.0 | 0.00 | 0.00 | 0.00 | ||
| 20260831100829 | 80 | 7 | 0.0 | 0.0 | 0.00 | 0.00 | 0.00 | ||
| 20260831100327 | 80 | 54 | 0.0 | 0.0 | 0.00 | 0.00 | 0.00 | ||
| 20260831095829 | 80 | 50 | 0.0 | 0.0 | 0.00 | 0.00 | 0.00 | ||
| 20260831095329 | 81 | 52 | 0.0 | 0.0 | 0.00 | 0.00 | 0.00 | ||
| 20260831094333 | 81 | 43 | 0.0 | 2.0 | 0.00 | 0.00 | 0.00 | ||
| 20260831093825 | 81 | 61 | 0.0 | 2.0 | 0.00 | 0.00 | 0.00 | ||
| 20260831093322 | 81 | 102 | 0.0 | 2.0 | 0.00 | 0.00 | 0.00 | ||
| 20260831092325 | 81 | 129 | 0.0 | 1.0 | 0.00 | 0.00 | 0.00 | ||
| 20260831091332 | 81 | 230 | 0.0 | 0.0 | 0.00 | 0.00 | 0.00 | ||
| 20260831090825 | 81 | 234 | 0.0 | 1.0 | 0.00 | 0.00 | 0.00 | ||
| 20260831090326 | 82 | 184 | 0.0 | 1.0 | 0.00 | 0.00 | 0.00 | ||
| 20260831085829 | 82 | 9 | 0.0 | 0.0 | 0.00 | 0.00 | 0.00 | ||
| 20260831085328 | 82 | 9 | 0.0 | 0.0 | 0.00 | 0.00 | 0.00 | ||
| 20260831084829 | 82 | 9 | 0.0 | 1.0 | 0.00 | 0.00 | 0.00 | ||
| 20260831084320 | 82 | 9 | 0.0 | 1.0 | 0.00 | 0.00 | 0.00 | ||
| 20260831083824 | 82 | 0 | 0.0 | 1.0 | 0.00 | 0.00 | 0.00 | ||
| 20260831082829 | 83 | 0 | 1.0 | 3.0 | 0.00 | 0.00 | 0.00 | ||
| 20260831082331 | 83 | 0 | 1.0 | 3.0 | 0.00 | 0.00 | 0.00 | ||
| 20260831081830 | 83 | 0 | 1.0 | 3.0 | 0.00 | 0.00 | 0.00 | ||
| 20260831081331 | 83 | 0 | 0.0 | 2.0 | 0.00 | 0.00 | 0.00 | ||
| 20260831080329 | 83 | 0 | 1.0 | 3.0 | 0.00 | 0.00 | 0.00 | ||
| 20260831075332 | 83 | 0 | 0.0 | 2.0 | 0.00 | 0.00 | 0.00 | ||
| 20260831074833 | 83 | 0 | 0.0 | 1.0 | 0.00 | 0.00 | 0.00 | ||
| 20260831074326 | 84 | 0 | 0.0 | 1.0 | 0.00 | 0.00 | 0.00 | ||
| 20260831073834 | 84 | 0 | 0.0 | 2.0 | 0.00 | 0.00 | 0.00 | ||
| 20260831073333 | 84 | 0 | 1.0 | 5.0 | 0.00 | 0.00 | 0.00 | ||
| 20260831072834 | 84 | 0 | 2.0 | 5.0 | 0.00 | 0.00 | 0.00 | ||
| 20260831071816 | 84 | 0 | 4.0 | 6.0 | 0.00 | 0.00 | 0.00 | ||
| 20260831071340 | 84 | 0 | 3.0 | 6.0 | 0.00 | 0.00 | 0.00 | ||
| 20260831070831 | 84 | 0 | 2.0 | 4.0 | 0.00 | 0.00 | 0.00 | ||
| 20260831070332 | 84 | 0 | 2.0 | 4.0 | 0.00 | 0.00 | 0.00 | ||
| 20260831065831 | 84 | 0 | 2.0 | 4.0 | 0.00 | 0.00 | 0.00 | ||
| 20260831065331 | 84 | 0 | 2.0 | 4.0 | 0.00 | 0.00 | 0.00 | ||
| 20260831064831 | 84 | 0 | 1.0 | 4.0 | 0.00 | 0.00 | 0.00 | ||
| 20260831063829 | 85 | 308 | 1.0 | 2.0 | 0.00 | 0.00 | 0.00 | ||
| 20260831062836 | 85 | 0 | 0.0 | 1.0 | 0.00 | 0.00 | 0.00 | ||
| 20260831062321 | 85 | 0 | 0.0 | 2.0 | 0.00 | 0.00 | 0.00 | ||
| 20260831061822 | 86 | 350 | 0.0 | 3.0 | 0.00 | 0.00 | 0.00 | ||
| 20260831061345 | 86 | 0 | 1.0 | 3.0 | 0.00 | 0.00 | 0.00 | ||
| 20260831060819 | 86 | 0 | 0.0 | 2.0 | 0.00 | 0.00 | 0.00 | ||
| 20260831060320 | 86 | 0 | 1.0 | 3.0 | 0.00 | 0.00 | 0.00 | ||
| 20260831055821 | 87 | 0 | 0.0 | 3.0 | 0.00 | 0.00 | 0.00 | ||
| 20260831055321 | 87 | 355 | 1.0 | 2.0 | 0.00 | 0.00 | 0.00 | ||
| 20260831054345 | 87 | 286 | 1.0 | 4.0 | 0.00 | 0.00 | 0.00 | ||
| 20260831053320 | 87 | 350 | 3.0 | 7.0 | 0.00 | 0.00 | 0.00 | ||
| 20260831052822 | 87 | 359 | 2.0 | 8.0 | 0.00 | 0.00 | 0.00 | ||
| 20260831052321 | 87 | 348 | 5.0 | 8.0 | 0.00 | 0.00 | 0.00 | ||
| 20260831051822 | 87 | 0 | 2.0 | 5.0 | 0.00 | 0.00 | 0.00 | ||
| 20260831051326 | 87 | 0 | 3.0 | 5.0 | 0.00 | 0.00 | 0.00 | ||
| 20260831050327 | 87 | 0 | 2.0 | 4.0 | 0.00 | 0.00 | 0.00 | ||
| 20260831045827 | 87 | 0 | 2.0 | 3.0 | 0.00 | 0.00 | 0.00 | ||
| 20260831044831 | 87 | 0 | 1.0 | 2.0 | 0.00 | 0.00 | 0.00 | ||
| 20260831044335 | 87 | 0 | 0.0 | 2.0 | 0.00 | 0.00 | 0.00 | ||
| 20260831043828 | 88 | 0 | 1.0 | 2.0 | 0.00 | 0.00 | 0.00 | ||
| 20260831043330 | 88 | 0 | 1.0 | 2.0 | 0.00 | 0.00 | 0.00 | ||
| 20260831042829 | 88 | 0 | 1.0 | 2.0 | 0.00 | 0.00 | 0.00 | ||
| 20260831042330 | 88 | 0 | 1.0 | 2.0 | 0.00 | 0.00 | 0.00 | ||
| 20260831041829 | 88 | 0 | 1.0 | 3.0 | 0.00 | 0.00 | 0.00 | ||
| 20260831041332 | 88 | 0 | 1.0 | 3.0 | 0.00 | 0.00 | 0.00 | ||
| 20260831040822 | 89 | 0 | 1.0 | 3.0 | 0.00 | 0.00 | 0.00 | ||
| 20260831040322 | 89 | 0 | 0.0 | 3.0 | 0.00 | 0.00 | 0.00 | ||
| 20260831035821 | 89 | 0 | 1.0 | 2.0 | 0.00 | 0.00 | 0.00 | ||
| 20260831035327 | 89 | 0 | 0.0 | 2.0 | 0.00 | 0.00 | 0.00 | ||
| 20260831034829 | 90 | 0 | 0.0 | 2.0 | 0.00 | 0.00 | 0.00 | ||
| 20260831034332 | 90 | 0 | 0.0 | 2.0 | 0.00 | 0.00 | 0.00 | ||
| 20260831033823 | 90 | 0 | 1.0 | 2.0 | 0.00 | 0.00 | 0.00 | ||
| 20260831033324 | 90 | 0 | 1.0 | 2.0 | 0.00 | 0.00 | 0.00 | ||
| 20260831032825 | 91 | 0 | 1.0 | 2.0 | 0.00 | 0.00 | 0.00 | ||
| 20260831032328 | 91 | 0 | 0.0 | 2.0 | 0.00 | 0.00 | 0.00 | ||
| 20260831031827 | 92 | 0 | 0.0 | 3.0 | 0.00 | 0.00 | 0.00 | ||
| 20260831030825 | 92 | 0 | 2.0 | 4.0 | 0.00 | 0.00 | 0.00 | ||
| 20260831030326 | 92 | 0 | 1.0 | 5.0 | 0.00 | 0.00 | 0.00 | ||
| 20260831025827 | 93 | 351 | 2.0 | 5.0 | 0.00 | 0.00 | 0.00 | ||
| 20260831025329 | 93 | 0 | 2.0 | 4.0 | 0.00 | 0.00 | 0.00 | ||
| 20260831024830 | 93 | 359 | 2.0 | 4.0 | 0.00 | 0.00 | 0.00 | ||
| 20260831024334 | 93 | 0 | 2.0 | 4.0 | 0.00 | 0.00 | 0.00 | ||
| 20260831023825 | 94 | 0 | 3.0 | 6.0 | 0.00 | 0.00 | 0.00 | ||
| 20260831023325 | 94 | 0 | 3.0 | 6.0 | 0.00 | 0.00 | 0.00 | ||
| 20260831022329 | 94 | 353 | 4.0 | 6.0 | 0.00 | 0.00 | 0.00 | ||
| 20260831021830 | 94 | 0 | 3.0 | 5.0 | 0.00 | 0.00 | 0.00 | ||
| 20260831021332 | 94 | 354 | 2.0 | 7.0 | 0.00 | 0.00 | 0.00 | ||
| 20260831020826 | 95 | 0 | 2.0 | 8.0 | 0.00 | 0.00 | 0.00 | ||
| 20260831020326 | 95 | 0 | 3.0 | 7.0 | 0.00 | 0.00 | 0.00 | ||
| 20260831015329 | 95 | 0 | 3.0 | 7.0 | 0.00 | 0.00 | 0.00 | ||
| 20260831014831 | 95 | 353 | 4.0 | 7.0 | 0.00 | 0.00 | 0.00 | ||
| 20260831014334 | 96 | 0 | 4.0 | 7.0 | 0.00 | 0.00 | 0.00 | ||
| 20260831013824 | 96 | 0 | 4.0 | 6.0 | 0.00 | 0.00 | 0.00 | ||
| 20260831013326 | 96 | 0 | 3.0 | 7.0 | 0.00 | 0.00 | 0.00 | ||
| 20260831012337 | 96 | 0 | 3.0 | 9.0 | 0.00 | 0.00 | 0.00 | ||
| 20260831011835 | 96 | 0 | 2.0 | 7.0 | 0.00 | 0.00 | 0.00 | ||
| 20260831010830 | 96 | 0 | 5.0 | 11.0 | 0.00 | 0.00 | 0.00 | ||
| 20260831010329 | 96 | 0 | 4.0 | 10.0 | 0.00 | 0.00 | 0.00 | ||
| 20260831005828 | 97 | 359 | 5.0 | 13.0 | 0.00 | 0.00 | 0.00 | ||
| 20260831005330 | 96 | 358 | 4.0 | 13.0 | 0.00 | 0.00 | 0.00 | ||
| 20260831004831 | 96 | 0 | 5.0 | 10.0 | 0.00 | 0.00 | 0.00 | ||
| 20260831004332 | 97 | 359 | 2.0 | 12.0 | 0.00 | 0.00 | 0.00 | ||
| 20260831003824 | 97 | 0 | 4.0 | 12.0 | 0.00 | 0.00 | 0.00 | ||
| 20260831003325 | 97 | 0 | 3.0 | 9.0 | 0.00 | 0.00 | 0.00 | ||
| 20260831002826 | 97 | 357 | 3.0 | 13.0 | 0.00 | 0.00 | 0.00 | ||
| 20260831002327 | 97 | 0 | 5.0 | 13.0 | 0.00 | 0.00 | 0.00 | ||
| 20260831001826 | 97 | 0 | 5.0 | 9.0 | 0.00 | 0.00 | 0.00 | ||
| 20260831000829 | 97 | 347 | 5.0 | 11.0 | 0.00 | 0.00 | 0.00 | ||
| 20260831000329 | 97 | 355 | 5.0 | 10.0 | 0.00 | 0.00 | 0.00 | ||
| 20260830235830 | 97 | 0 | 5.0 | 10.0 | 0.00 | 0.00 | 0.00 | ||
| 20260830235333 | 97 | 0 | 4.0 | 12.0 | 0.00 | 0.00 | 0.00 | ||
| 20260830234834 | 97 | 0 | 4.0 | 12.0 | 0.00 | 0.00 | 0.00 | ||
| 20260830234335 | 97 | 0 | 5.0 | 8.0 | 0.00 | 0.00 | 0.00 | ||
| 20260830233827 | 97 | 357 | 4.0 | 7.0 | 0.00 | 0.00 | 0.00 | ||
| 20260830233327 | 97 | 0 | 4.0 | 8.0 | 0.00 | 0.00 | 0.00 | ||
| 20260830232830 | 97 | 0 | 5.0 | 12.0 | 0.00 | 0.00 | 0.00 | ||
| 20260830232331 | 97 | 358 | 6.0 | 12.0 | 0.00 | 0.00 | 0.00 | ||
| 20260830231831 | 97 | 0 | 7.0 | 11.0 | 0.00 | 0.00 | 0.00 | ||
| 20260830230827 | 97 | 0 | 5.0 | 14.0 | 0.00 | 0.00 | 0.00 | ||
| 20260830230326 | 97 | 0 | 7.0 | 14.0 | 0.00 | 0.00 | 0.00 | ||
| 20260830225830 | 97 | 359 | 6.0 | 13.0 | 0.00 | 0.00 | 0.00 | ||
| 20260830225333 | 97 | 0 | 8.0 | 13.0 | 0.00 | 0.00 | 0.00 | ||
| 20260830224833 | 97 | 359 | 5.0 | 14.0 | 0.00 | 0.00 | 0.00 | ||
| 20260830224335 | 98 | 359 | 7.0 | 14.0 | 0.00 | 0.00 | 0.00 | ||
| 20260830223828 | 98 | 359 | 6.0 | 14.0 | 0.00 | 0.00 | 0.00 | ||
| 20260830223329 | 98 | 359 | 6.0 | 13.0 | 0.00 | 0.00 | 0.00 | ||
| 20260830222831 | 98 | 0 | 6.0 | 13.0 | 0.00 | 0.00 | 0.00 | ||
| 20260830222332 | 98 | 356 | 5.0 | 13.0 | 0.00 | 0.00 | 0.00 | ||
| 20260830221335 | 98 | 0 | 6.0 | 13.0 | 0.00 | 0.00 | 0.00 | ||
| 20260830220828 | 98 | 0 | 8.0 | 13.0 | 0.00 | 0.00 | 0.00 | ||
| 20260830220329 | 98 | 0 | 6.0 | 13.0 | 0.00 | 0.00 | 0.00 | ||
| 20260830215827 | 98 | 0 | 5.0 | 9.0 | 0.00 | 0.00 | 0.00 | ||
| 20260830215329 | 97 | 359 | 5.0 | 11.0 | 0.00 | 0.00 | 0.00 | ||
| 20260830214835 | 97 | 359 | 5.0 | 12.0 | 0.00 | 0.00 | 0.00 | ||
| 20260830213830 | 97 | 359 | 5.0 | 12.0 | 0.00 | 0.00 | 0.00 | ||
| 20260830213331 | 97 | 0 | 6.0 | 12.0 | 0.00 | 0.00 | 0.00 | ||
| 20260830212834 | 97 | 0 | 5.0 | 12.0 | 0.00 | 0.00 | 0.00 | ||
| 20260830212333 | 97 | 0 | 4.0 | 15.0 | 0.00 | 0.00 | 0.00 | ||
| 20260830211833 | 97 | 359 | 6.0 | 15.0 | 0.00 | 0.00 | 0.00 | ||
| 20260830211335 | 98 | 0 | 6.0 | 11.0 | 0.00 | 0.00 | 0.00 | ||
| 20260830210825 | 98 | 0 | 6.0 | 14.0 | 0.00 | 0.00 | 0.00 | ||
| 20260830205829 | 98 | 358 | 8.0 | 20.0 | 0.00 | 0.00 | 0.00 | ||
| 20260830205329 | 98 | 355 | 8.0 | 17.0 | 0.00 | 0.00 | 0.00 | ||
| 20260830204828 | 98 | 348 | 8.0 | 19.0 | 0.00 | 0.00 | 0.00 | ||
| 20260830204330 | 98 | 358 | 8.0 | 19.0 | 0.00 | 0.00 | 0.00 |